| time (UTC) | temp C | wind direction | speed KPH | gust KPH | rain 1hr cm | rain 24hr cm | rain mn cm | humidity % | barometer mb |
| 20260505064508 | 15 | 244 | 0.0 | 1.6 | 0.00 | 0.00 | 0.00 | 69 | 1008.2 |
| 20260505063005 | 15 | 244 | 0.0 | 0.0 | 0.00 | 0.00 | 0.00 | 68 | 1008.2 |
| 20260505061503 | 15 | 244 | 0.0 | 1.6 | 0.00 | 0.00 | 0.00 | 67 | 1008.1 |
| 20260505060002 | 15 | 244 | 0.0 | 6.4 | 0.00 | 0.00 | 0.00 | 66 | 1008.1 |
| 20260505054607 | 15 | 221 | 0.0 | 3.2 | 0.00 | 0.00 | 0.00 | 65 | 1008.1 |
| 20260505053103 | 15 | 221 | 0.0 | 6.4 | 0.00 | 0.00 | 0.00 | 64 | 1008.2 |
| 20260505051557 | 16 | 246 | 0.0 | 3.2 | 0.00 | 0.00 | 0.00 | 63 | 1008.2 |
| 20260505041555 | 16 | 227 | 1.6 | 11.3 | 0.00 | 0.00 | 0.00 | 59 | 1008.1 |
| 20260505040049 | 16 | 207 | 0.0 | 11.3 | 0.00 | 0.00 | 0.00 | 57 | 1007.9 |
| 20260505034547 | 17 | 267 | 1.6 | 12.9 | 0.00 | 0.00 | 0.00 | 56 | 1007.8 |
| 20260505033048 | 17 | 252 | 1.6 | 11.3 | 0.00 | 0.00 | 0.00 | 54 | 1008.0 |
| 20260505031547 | 17 | 228 | 3.2 | 6.4 | 0.00 | 0.00 | 0.00 | 53 | 1008.1 |
| 20260505030105 | 17 | 227 | 3.2 | 6.4 | 0.00 | 0.00 | 0.00 | 52 | 1008.0 |
| 20260505024549 | 17 | 248 | 1.6 | 6.4 | 0.00 | 0.00 | 0.00 | 51 | 1008.0 |
| 20260505023045 | 17 | 236 | 1.6 | 8.0 | 0.00 | 0.00 | 0.00 | 50 | 1008.1 |
| 20260505021544 | 18 | 236 | 1.6 | 6.4 | 0.00 | 0.00 | 0.00 | 49 | 1008.2 |
| 20260505020044 | 18 | 240 | 1.6 | 6.4 | 0.00 | 0.00 | 0.00 | 48 | 1008.3 |
| 20260505014602 | 18 | 300 | 0.0 | 3.2 | 0.00 | 0.00 | 0.00 | 48 | 1008.2 |
| 20260505013050 | 18 | 261 | 0.0 | 3.2 | 0.00 | 0.00 | 0.00 | 47 | 1008.1 |
| 20260505011544 | 18 | 248 | 0.0 | 3.2 | 0.00 | 0.00 | 0.00 | 46 | 1008.0 |
| 20260505010052 | 19 | 243 | 0.0 | 4.8 | 0.00 | 0.00 | 0.00 | 45 | 1007.9 |
| 20260505004548 | 19 | 236 | 0.0 | 6.4 | 0.00 | 0.00 | 0.00 | 44 | 1007.7 |
| 20260505003054 | 20 | 237 | 0.0 | 4.8 | 0.00 | 0.00 | 0.00 | 44 | 1007.5 |
| 20260505001542 | 20 | 236 | 0.0 | 11.3 | 0.00 | 0.00 | 0.00 | 43 | 1007.5 |
| 20260505000040 | 20 | 236 | 3.2 | 6.4 | 0.00 | 0.00 | 0.00 | 42 | 1007.3 |
| 20260504234539 | 20 | 238 | 1.6 | 6.4 | 0.00 | 0.00 | 0.00 | 42 | 1007.3 |
| 20260504233039 | 21 | 194 | 3.2 | 11.3 | 0.00 | 0.00 | 0.00 | 41 | 1007.3 |
| 20260504231538 | 21 | 242 | 1.6 | 12.9 | 0.00 | 0.00 | 0.00 | 41 | 1007.3 |
| 20260504230038 | 21 | 280 | 3.2 | 11.3 | 0.00 | 0.00 | 0.00 | 41 | 1007.3 |
| 20260504224537 | 21 | 195 | 4.8 | 12.9 | 0.00 | 0.00 | 0.00 | 40 | 1007.3 |
| 20260504223055 | 22 | 227 | 1.6 | 14.5 | 0.00 | 0.00 | 0.00 | 39 | 1007.3 |
| 20260504221535 | 22 | 284 | 6.4 | 14.5 | 0.00 | 0.00 | 0.00 | 38 | 1007.4 |
| 20260504220034 | 21 | 197 | 1.6 | 16.1 | 0.00 | 0.00 | 0.00 | 39 | 1007.3 |
| 20260504214534 | 21 | 284 | 3.2 | 8.0 | 0.00 | 0.00 | 0.00 | 38 | 1007.5 |
| 20260504213033 | 21 | 180 | 6.4 | 16.1 | 0.00 | 0.00 | 0.00 | 38 | 1007.6 |
| 20260504211544 | 21 | 252 | 8.0 | 14.5 | 0.00 | 0.00 | 0.00 | 38 | 1007.6 |
| 20260504210036 | 21 | 278 | 4.8 | 14.5 | 0.00 | 0.00 | 0.00 | 38 | 1007.6 |
| 20260504204532 | 21 | 284 | 6.4 | 12.9 | 0.00 | 0.00 | 0.00 | 40 | 1007.6 |
| 20260504203028 | 21 | 289 | 6.4 | 17.7 | 0.00 | 0.00 | 0.00 | 39 | 1007.7 |
| 20260504201525 | 21 | 273 | 8.0 | 14.5 | 0.00 | 0.00 | 0.00 | 39 | 1008.0 |
| 20260504200025 | 21 | 278 | 9.7 | 16.1 | 0.00 | 0.00 | 0.00 | 42 | 1008.1 |
| 20260504194523 | 21 | 187 | 6.4 | 16.1 | 0.00 | 0.00 | 0.00 | 39 | 1008.3 |
| 20260504193022 | 21 | 194 | 4.8 | 12.9 | 0.00 | 0.00 | 0.00 | 40 | 1008.4 |
| 20260504191518 | 22 | 226 | 3.2 | 16.1 | 0.00 | 0.00 | 0.00 | 40 | 1008.6 |
| 20260504190016 | 22 | 287 | 9.7 | 16.1 | 0.00 | 0.00 | 0.00 | 38 | 1008.8 |
| 20260504184515 | 22 | 219 | 4.8 | 12.9 | 0.00 | 0.00 | 0.00 | 37 | 1008.8 |
| 20260504183013 | 22 | 297 | 8.0 | 14.5 | 0.00 | 0.00 | 0.00 | 38 | 1009.1 |
| 20260504181511 | 22 | 271 | 6.4 | 12.9 | 0.00 | 0.00 | 0.00 | 38 | 1009.4 |
| 20260504180010 | 21 | 219 | 8.0 | 17.7 | 0.00 | 0.00 | 0.00 | 38 | 1009.5 |
| 20260504174507 | 21 | 153 | 3.2 | 11.3 | 0.00 | 0.00 | 0.00 | 40 | 1009.7 |
| 20260504173005 | 21 | 286 | 6.4 | 14.5 | 0.00 | 0.00 | 0.00 | 39 | 1009.9 |
| 20260504171503 | 21 | 294 | 8.0 | 14.5 | 0.00 | 0.00 | 0.00 | 38 | 1010.2 |
| 20260504081524 | 4 | 287 | 0.0 | 1.6 | 0.00 | 0.00 | 0.00 | 78 | 1012.6 |